Location: *
(55.5817°S, 142.4781°W)
Time: 07:35:37
(UTC+00:00)

Cosmos 1140 Rocket - Pass Details

Date: 29 April 2025
Orbit: 740 x 762 km, 74.1° (Epoch: 23 May)

Event Time Altitude Azimuth Distance (km) Brightness Sun altitude
Exits shadow 13:48:23 28° 198° (SSW) 1,415 4.8 -25.9°
Maximum altitude 13:51:10 69° 121° (ESE) 820 3.7 -25.6°
Drops below altitude 10° 13:56:23 10° 37° (NE) 2,301 6.3 -24.8°
Sets 13:58:46 0° 34° (NE) 3,223 7.0 -24.5°
